COSMOS 1275 DEB, 15542

Orbit data source: Space-Track

COSMOS 1275 DEB, 15542 is space debris in LEO originally from a launch on Thu, 04 Jun 1981 UTC launched from the Plesetsk Missile And Space Complex (PKMTR). Debris objects in space refer to the collection of defunct objects orbiting the Earth. Examples of debris include non-operational satellites, rocket bodies, and fragments generated from explosions, collisions, or faulty payload assembly.

Loading next visibility...
Identifier
15542, 1981-053KA
Orbit
LEO
Country
Flag of CISCIS
Related business
Manufacturer
Unknown
Mission
Spacecraft
Bus & Motor
Unknown
Mass
Unknown
Launch date (UTC)
1981-06-04 (45 years ago)
Launch vehicle
Unknown
Launch site
Plesetsk Missile And Space Complex (PKMTR)
Object type
Payload
Rocket body
Debris
Shape & HBR
Unknown shape, 0.1 m
Radar Cross Section
Medium (>0.1 m² and <1 m²)

Expand to show TLE details & history
Last TLE update: 15 hours ago

TLE from 15 hours ago
0 COSMOS 1275 DEB
1 15542U 81053KA  26150.27949228  .00001137  00000-0  10215-2 0  9994
2 15542  83.0019  77.9608 0073205  46.1421  81.5516 13.82081528224273
Epoch: 2026-05-30T06:42Z
TLE epoch observation values (Epoch: 2026-05-30T06:42:28.132Z)
Latitude
51.03999°
Longitude
-99.13969°
Altitude
957.203 km
Speed
7.382 km/s
True Right ascension
16h 37m 06s
True Declination
50° 52' 35"
Sunlit
Object was in daylight at epoch
Visualization orbit readout
Latitude
Unknown
Longitude
Unknown
Altitude
Unknown
Speed
Unknown
Apparent Right ascension
Unknown
Apparent Declination
Unknown
Sunlit
N/A
Visualization observer readout
Local Sidereal Time
07:01:42
Azimuth
Unknown
Elevation
Unknown
Doppler factor
Unknown
Orbital elements
Apogee altitude
1,007.322 km
Perigee altitude
899.977 km
Semi-major axis
7,331.787 km
Eccentricity
0.00732
Inclination
83.0019°
RAAN
77.9608°
Arg. of periapsis
46.1421°
True anomaly
82.38245°
Mean anomaly
81.5516°
Eccentric anomaly
81.96692°
Mean motion
3.45723 °/min
Orbital period
104.13 mins
BSTAR
0.0010215
Loading maneuver chart data...
Computing Atmospheric mass density...
Loading historical data...
Loading historical data...
Loading historical data...
Loading historical data...
Loading historical data...
Loading historical data...
Loading historical data...

Documentation

Showing up to 5 results
|